Time,TemperatureF,DewpointF,PressureIn,WindDirection,WindDirectionDegrees,WindSpeedMPH,WindSpeedGustMPH,Humidity,HourlyPrecipIn,Conditions,Clouds,dailyrainin,SoftwareType,DateUTC
2013-09-03 00:00:00,90.1,62.5,29.74,NW,304,9.0,18.0,40,0.00,,---,0.00,VWS V14.00,2013-09-03 07:00:00,
2013-09-03 00:05:00,89.9,62.4,29.74,WNW,300,12.0,18.0,40,0.00,,---,0.00,VWS V14.00,2013-09-03 07:05:00,
2013-09-03 00:10:00,89.7,62.2,29.74,WNW,300,13.0,18.0,40,0.00,,---,0.00,VWS V14.00,2013-09-03 07:10:00,
2013-09-03 00:15:00,89.5,62.0,29.74,WNW,300,11.0,22.0,40,0.00,,---,0.00,VWS V14.00,2013-09-03 07:15:00,
2013-09-03 00:20:00,89.3,62.5,29.74,WNW,301,14.0,23.0,41,0.00,,---,0.00,VWS V14.00,2013-09-03 07:20:00,
2013-09-03 00:25:00,89.2,62.4,29.74,WNW,301,14.0,18.0,41,0.00,,---,0.00,VWS V14.00,2013-09-03 07:25:00,
2013-09-03 00:30:00,89.2,62.4,29.74,NW,304,10.0,19.0,41,0.00,,---,0.00,VWS V14.00,2013-09-03 07:30:00,
2013-09-03 00:35:00,89.2,62.4,29.74,NW,304,6.0,17.0,41,0.00,,---,0.00,VWS V14.00,2013-09-03 07:35:00,
2013-09-03 00:40:00,89.3,62.5,29.74,NW,305,11.0,18.0,41,0.00,,---,0.00,VWS V14.00,2013-09-03 07:40:00,
2013-09-03 00:45:00,89.3,62.5,29.74,NW,305,15.0,16.0,41,0.00,,---,0.00,VWS V14.00,2013-09-03 07:45:00,
2013-09-03 00:50:00,89.4,61.9,29.74,NW,308,13.0,20.0,40,0.00,,---,0.00,VWS V14.00,2013-09-03 07:50:00,
2013-09-03 00:55:00,89.5,62.0,29.74,NW,311,9.0,17.0,40,0.00,,---,0.00,VWS V14.00,2013-09-03 07:55:00,
2013-09-03 01:00:00,89.6,62.1,29.74,NW,315,10.0,17.0,40,0.00,,---,0.00,VWS V14.00,2013-09-03 08:00:00,
2013-09-03 01:05:00,89.5,62.0,29.74,NW,315,7.0,18.0,40,0.00,,---,0.00,VWS V14.00,2013-09-03 08:05:00,
2013-09-03 01:10:00,89.5,62.0,29.74,NW,313,10.0,18.0,40,0.00,,---,0.00,VWS V14.00,2013-09-03 08:10:00,
2013-09-03 01:15:00,89.5,62.0,29.74,NW,312,12.0,15.0,40,0.00,,---,0.00,VWS V14.00,2013-09-03 08:15:00,
2013-09-03 01:20:00,89.3,61.8,29.74,NW,311,10.0,17.0,40,0.00,,---,0.00,VWS V14.00,2013-09-03 08:20:00,
2013-09-03 01:25:00,89.3,61.8,29.74,NW,309,11.0,18.0,40,0.00,,---,0.00,VWS V14.00,2013-09-03 08:25:00,
2013-09-03 01:30:00,89.3,61.8,29.74,NW,309,10.0,15.0,40,0.00,,---,0.00,VWS V14.00,2013-09-03 08:30:00,
2013-09-03 01:35:00,89.4,61.9,29.74,NW,309,8.0,13.0,40,0.00,,---,0.00,VWS V14.00,2013-09-03 08:35:00,
2013-09-03 01:40:00,89.5,62.0,29.74,NW,309,8.0,16.0,40,0.00,,---,0.00,VWS V14.00,2013-09-03 08:40:00,
2013-09-03 01:45:00,89.4,61.9,29.74,NW,309,8.0,13.0,40,0.00,,---,0.00,VWS V14.00,2013-09-03 08:45:00,
2013-09-03 01:50:00,89.0,62.3,29.74,NW,309,6.0,12.0,41,0.00,,---,0.00,VWS V14.00,2013-09-03 08:50:00,
2013-09-03 01:55:00,88.6,61.9,29.74,NW,309,4.0,10.0,41,0.00,,---,0.00,VWS V14.00,2013-09-03 08:55:00,
2013-09-03 02:00:00,88.3,62.3,29.74,NW,309,5.0,9.0,42,0.00,,---,0.00,VWS V14.00,2013-09-03 09:00:00,
2013-09-03 02:05:00,88.0,62.0,29.74,NW,309,7.0,10.0,42,0.00,,---,0.00,VWS V14.00,2013-09-03 09:05:00,
2013-09-03 02:10:00,87.8,62.5,29.74,NW,309,5.0,11.0,43,0.00,,---,0.00,VWS V14.00,2013-09-03 09:10:00,
2013-09-03 02:15:00,87.5,62.3,29.74,NW,309,6.0,10.0,43,0.00,,---,0.00,VWS V14.00,2013-09-03 09:15:00,
2013-09-03 02:20:00,87.4,62.2,29.74,NW,309,6.0,8.0,43,0.00,,---,0.00,VWS V14.00,2013-09-03 09:20:00,
2013-09-03 02:25:00,87.4,62.2,29.74,NW,309,0.0,8.0,43,0.00,,---,0.00,VWS V14.00,2013-09-03 09:25:00,
2013-09-03 02:30:00,87.4,62.2,29.74,NW,309,0.0,0.0,43,0.00,,---,0.00,VWS V14.00,2013-09-03 09:30:00,
2013-09-03 02:35:00,87.3,62.1,29.74,NW,309,6.0,8.0,43,0.00,,---,0.00,VWS V14.00,2013-09-03 09:35:00,
2013-09-03 02:40:00,87.2,62.0,29.74,NW,309,5.0,8.0,43,0.00,,---,0.00,VWS V14.00,2013-09-03 09:40:00,
2013-09-03 02:45:00,87.0,61.8,29.74,NW,309,0.0,4.0,43,0.00,,---,0.00,VWS V14.00,2013-09-03 09:45:00,
2013-09-03 02:50:00,86.8,61.6,29.74,NW,309,3.0,8.0,43,0.00,,---,0.00,VWS V14.00,2013-09-03 09:50:00,
2013-09-03 02:55:00,86.6,62.1,29.74,NW,309,2.0,6.0,44,0.00,,---,0.00,VWS V14.00,2013-09-03 09:55:00,
2013-09-03 03:00:00,86.5,62.0,29.74,NW,309,7.0,11.0,44,0.00,,---,0.00,VWS V14.00,2013-09-03 10:00:00,
2013-09-03 03:05:00,86.6,61.5,29.74,NW,309,8.0,11.0,43,0.00,,---,0.00,VWS V14.00,2013-09-03 10:05:00,
2013-09-03 03:10:00,86.8,61.6,29.73,NW,309,5.0,10.0,43,0.00,,---,0.00,VWS V14.00,2013-09-03 10:10:00,
2013-09-03 03:15:00,86.8,61.6,29.73,NW,309,10.0,10.0,43,0.00,,---,0.00,VWS V14.00,2013-09-03 10:15:00,
2013-09-03 03:20:00,86.8,61.6,29.73,NW,309,6.0,11.0,43,0.00,,---,0.00,VWS V14.00,2013-09-03 10:20:00,
2013-09-03 03:26:00,86.8,61.6,29.74,NW,309,4.0,10.0,43,0.00,,---,0.00,VWS V14.00,2013-09-03 10:26:00,
2013-09-03 03:31:00,86.7,61.5,29.74,NW,309,7.0,12.0,43,0.00,,---,0.00,VWS V14.00,2013-09-03 10:31:00,
2013-09-03 03:36:00,86.7,61.5,29.74,NW,309,7.0,12.0,43,0.00,,---,0.00,VWS V14.00,2013-09-03 10:36:00,
2013-09-03 03:41:00,86.6,61.5,29.73,NW,309,2.0,9.0,43,0.00,,---,0.00,VWS V14.00,2013-09-03 10:41:00,
2013-09-03 03:46:00,86.5,62.0,29.73,NW,309,0.0,6.0,44,0.00,,---,0.00,VWS V14.00,2013-09-03 10:46:00,
2013-09-03 03:51:00,86.5,62.0,29.73,NW,309,0.0,0.0,44,0.00,,---,0.00,VWS V14.00,2013-09-03 10:51:00,
2013-09-03 03:56:00,86.4,61.9,29.73,NW,309,0.0,0.0,44,0.00,,---,0.00,VWS V14.00,2013-09-03 10:56:00,
2013-09-03 04:01:00,86.3,61.8,29.73,NW,309,0.0,0.0,44,0.00,,---,0.00,VWS V14.00,2013-09-03 11:01:00,
2013-09-03 04:06:00,86.3,61.8,29.73,NW,309,0.0,0.0,44,0.00,,---,0.00,VWS V14.00,2013-09-03 11:06:00,
2013-09-03 04:11:00,86.3,61.8,29.73,NW,309,6.0,10.0,44,0.00,,---,0.00,VWS V14.00,2013-09-03 11:11:00,
2013-09-03 04:16:00,86.3,61.8,29.73,NW,309,6.0,9.0,44,0.00,,---,0.00,VWS V14.00,2013-09-03 11:16:00,
2013-09-03 04:21:00,86.2,61.8,29.73,NW,309,4.0,11.0,44,0.00,,---,0.00,VWS V14.00,2013-09-03 11:21:00,
2013-09-03 04:26:00,86.2,61.8,29.73,NW,309,6.0,9.0,44,0.00,,---,0.00,VWS V14.00,2013-09-03 11:26:00,
2013-09-03 04:31:00,86.2,61.8,29.73,NW,309,0.0,8.0,44,0.00,,---,0.00,VWS V14.00,2013-09-03 11:31:00,
2013-09-03 04:36:00,86.2,61.8,29.73,NW,309,2.0,8.0,44,0.00,,---,0.00,VWS V14.00,2013-09-03 11:36:00,
2013-09-03 04:41:00,86.2,61.8,29.73,NW,309,0.0,4.0,44,0.00,,---,0.00,VWS V14.00,2013-09-03 11:41:00,
2013-09-03 04:46:00,86.1,61.7,29.73,NW,309,0.0,5.0,44,0.00,,---,0.00,VWS V14.00,2013-09-03 11:46:00,
2013-09-03 04:51:00,86.2,61.1,29.73,NW,309,6.0,8.0,43,0.00,,---,0.00,VWS V14.00,2013-09-03 11:51:00,
2013-09-03 04:56:00,86.3,61.2,29.73,NW,309,6.0,9.0,43,0.00,,---,0.00,VWS V14.00,2013-09-03 11:56:00,
2013-09-03 05:01:00,86.3,61.2,29.73,NW,309,0.0,7.0,43,0.00,,---,0.00,VWS V14.00,2013-09-03 12:01:00,
2013-09-03 05:06:00,86.3,61.2,29.74,NW,309,2.0,8.0,43,0.00,,---,0.00,VWS V14.00,2013-09-03 12:06:00,
2013-09-03 05:11:00,86.2,61.1,29.73,NW,309,0.0,6.0,43,0.00,,---,0.00,VWS V14.00,2013-09-03 12:11:00,
2013-09-03 05:16:00,85.9,61.5,29.74,NW,309,0.0,0.0,44,0.00,,---,0.00,VWS V14.00,2013-09-03 12:16:00,
2013-09-03 05:21:00,85.7,61.3,29.73,NW,309,3.0,6.0,44,0.00,,---,0.00,VWS V14.00,2013-09-03 12:21:00,
2013-09-03 05:26:00,85.6,61.2,29.74,NW,309,0.0,7.0,44,0.00,,---,0.00,VWS V14.00,2013-09-03 12:26:00,
2013-09-03 05:31:00,85.4,61.0,29.74,NW,309,0.0,0.0,44,0.00,,---,0.00,VWS V14.00,2013-09-03 12:31:00,
2013-09-03 05:36:00,85.2,60.8,29.74,NW,309,0.0,0.0,44,0.00,,---,0.00,VWS V14.00,2013-09-03 12:36:00,
2013-09-03 05:41:00,85.0,60.7,29.74,NW,309,0.0,0.0,44,0.00,,---,0.00,VWS V14.00,2013-09-03 12:41:00,
2013-09-03 05:46:00,85.1,60.8,29.74,NW,309,0.0,0.0,44,0.00,,---,0.00,VWS V14.00,2013-09-03 12:46:00,
2013-09-03 05:51:00,85.4,60.4,29.74,NW,309,0.0,5.0,43,0.00,,---,0.00,VWS V14.00,2013-09-03 12:51:00,
2013-09-03 05:56:00,85.6,60.6,29.74,NW,309,0.0,0.0,43,0.00,,---,0.00,VWS V14.00,2013-09-03 12:56:00,
2013-09-03 06:01:00,85.7,60.7,29.75,NW,309,0.0,4.0,43,0.00,,---,0.00,VWS V14.00,2013-09-03 13:01:00,
2013-09-03 06:06:00,85.7,60.7,29.75,NW,309,0.0,0.0,43,0.00,,---,0.00,VWS V14.00,2013-09-03 13:06:00,
2013-09-03 06:11:00,85.3,60.9,29.75,NW,309,0.0,5.0,44,0.00,,---,0.00,VWS V14.00,2013-09-03 13:11:00,
2013-09-03 06:16:00,84.9,60.6,29.75,NW,309,0.0,0.0,44,0.00,,---,0.00,VWS V14.00,2013-09-03 13:16:00,
2013-09-03 06:21:00,84.7,61.0,29.75,NW,309,0.0,0.0,45,0.00,,---,0.00,VWS V14.00,2013-09-03 13:21:00,
2013-09-03 06:26:00,84.4,60.8,29.75,NW,309,0.0,0.0,45,0.00,,---,0.00,VWS V14.00,2013-09-03 13:26:00,
2013-09-03 06:31:00,84.2,60.6,29.75,NW,309,0.0,0.0,45,0.00,,---,0.00,VWS V14.00,2013-09-03 13:31:00,
2013-09-03 06:36:00,84.3,60.7,29.75,NW,309,0.0,0.0,45,0.00,,---,0.00,VWS V14.00,2013-09-03 13:36:00,
2013-09-03 06:41:00,84.3,60.7,29.76,NW,309,0.0,0.0,45,0.00,,---,0.00,VWS V14.00,2013-09-03 13:41:00,
2013-09-03 06:46:00,84.6,60.9,29.76,NW,309,0.0,6.0,45,0.00,,---,0.00,VWS V14.00,2013-09-03 13:46:00,
2013-09-03 06:51:00,85.2,60.8,29.76,NW,309,0.0,0.0,44,0.00,,---,0.00,VWS V14.00,2013-09-03 13:51:00,
2013-09-03 06:56:00,85.7,61.3,29.76,NW,309,0.0,0.0,44,0.00,,---,0.00,VWS V14.00,2013-09-03 13:56:00,
2013-09-03 07:01:00,86.4,61.3,29.76,NW,309,0.0,0.0,43,0.00,,---,0.00,VWS V14.00,2013-09-03 14:01:00,
2013-09-03 07:06:00,87.1,61.2,29.76,NW,309,0.0,0.0,42,0.00,,---,0.00,VWS V14.00,2013-09-03 14:06:00,
2013-09-03 07:11:00,87.4,61.5,29.77,NW,309,0.0,0.0,42,0.00,,---,0.00,VWS V14.00,2013-09-03 14:11:00,
2013-09-03 07:16:00,87.3,61.4,29.77,NW,309,0.0,0.0,42,0.00,,---,0.00,VWS V14.00,2013-09-03 14:16:00,
2013-09-03 07:21:00,87.1,61.2,29.77,NW,309,0.0,0.0,42,0.00,,---,0.00,VWS V14.00,2013-09-03 14:21:00,
2013-09-03 07:26:00,87.0,61.2,29.77,NW,309,0.0,0.0,42,0.00,,---,0.00,VWS V14.00,2013-09-03 14:26:00,
2013-09-03 07:31:00,87.0,61.2,29.77,NW,309,0.0,0.0,42,0.00,,---,0.00,VWS V14.00,2013-09-03 14:31:00,
2013-09-03 07:36:00,87.1,61.2,29.77,NW,309,0.0,0.0,42,0.00,,---,0.00,VWS V14.00,2013-09-03 14:36:00,
2013-09-03 07:41:00,87.5,60.9,29.77,NW,309,0.0,0.0,41,0.00,,---,0.00,VWS V14.00,2013-09-03 14:41:00,
2013-09-03 07:46:00,88.1,61.5,29.77,NW,309,0.0,0.0,41,0.00,,---,0.00,VWS V14.00,2013-09-03 14:46:00,
2013-09-03 07:51:00,88.7,62.0,29.78,NW,309,0.0,0.0,41,0.00,,---,0.00,VWS V14.00,2013-09-03 14:51:00,
2013-09-03 07:56:00,88.8,61.4,29.78,NW,309,1.0,2.0,40,0.00,,---,0.00,VWS V14.00,2013-09-03 14:56:00,
2013-09-03 08:01:00,89.2,61.0,29.78,NW,309,0.0,5.0,39,0.00,,---,0.00,VWS V14.00,2013-09-03 15:01:00,
2013-09-03 08:06:00,89.6,61.4,29.78,NW,309,0.0,7.0,39,0.00,,---,0.00,VWS V14.00,2013-09-03 15:06:00,
2013-09-03 08:11:00,90.0,61.0,29.78,NW,309,0.0,0.0,38,0.00,,---,0.00,VWS V14.00,2013-09-03 15:11:00,
2013-09-03 08:16:00,90.4,61.4,29.78,NW,309,0.0,0.0,38,0.00,,---,0.00,VWS V14.00,2013-09-03 15:16:00,
2013-09-03 08:21:00,90.9,61.8,29.78,NW,309,4.0,8.0,38,0.00,,---,0.00,VWS V14.00,2013-09-03 15:21:00,
2013-09-03 08:26:00,91.1,62.0,29.78,NW,309,0.0,6.0,38,0.00,,---,0.00,VWS V14.00,2013-09-03 15:26:00,
2013-09-03 08:31:00,91.8,61.1,29.78,NW,309,0.0,3.0,36,0.00,,---,0.00,VWS V14.00,2013-09-03 15:31:00,
2013-09-03 08:36:00,92.4,61.6,29.79,NW,309,0.0,9.0,36,0.00,,---,0.00,VWS V14.00,2013-09-03 15:36:00,
2013-09-03 08:41:00,92.7,61.9,29.78,NW,309,3.0,3.0,36,0.00,,---,0.00,VWS V14.00,2013-09-03 15:41:00,
2013-09-03 08:46:00,92.8,62.0,29.79,NW,309,0.0,0.0,36,0.00,,---,0.00,VWS V14.00,2013-09-03 15:46:00,
2013-09-03 08:51:00,93.0,62.1,29.79,NW,309,0.0,0.0,36,0.00,,---,0.00,VWS V14.00,2013-09-03 15:51:00,
2013-09-03 08:56:00,93.4,61.7,29.79,NW,309,0.0,0.0,35,0.00,,---,0.00,VWS V14.00,2013-09-03 15:56:00,
2013-09-03 09:01:00,93.8,62.0,29.79,NW,309,3.0,4.0,35,0.00,,---,0.00,VWS V14.00,2013-09-03 16:01:00,
2013-09-03 09:06:00,94.2,61.6,29.79,NW,309,0.0,4.0,34,0.00,,---,0.00,VWS V14.00,2013-09-03 16:06:00,
2013-09-03 09:11:00,94.3,61.7,29.79,NW,309,0.0,0.0,34,0.00,,---,0.00,VWS V14.00,2013-09-03 16:11:00,
2013-09-03 09:16:00,94.7,62.8,29.79,NW,309,0.0,0.0,35,0.00,,---,0.00,VWS V14.00,2013-09-03 16:16:00,
2013-09-03 09:21:00,95.0,62.3,29.79,NW,309,0.0,4.0,34,0.00,,---,0.00,VWS V14.00,2013-09-03 16:21:00,
2013-09-03 09:26:00,95.3,62.5,29.79,NW,309,5.0,5.0,34,0.00,,---,0.00,VWS V14.00,2013-09-03 16:26:00,
2013-09-03 09:31:00,95.3,61.7,29.80,NW,309,8.0,8.0,33,0.00,,---,0.00,VWS V14.00,2013-09-03 16:31:00,
2013-09-03 09:36:00,95.3,61.7,29.80,NW,309,2.0,5.0,33,0.00,,---,0.00,VWS V14.00,2013-09-03 16:36:00,
2013-09-03 09:41:00,95.1,61.5,29.80,NW,309,0.0,0.0,33,0.00,,---,0.00,VWS V14.00,2013-09-03 16:41:00,
2013-09-03 09:46:00,95.6,61.9,29.80,NW,309,0.0,0.0,33,0.00,,---,0.00,VWS V14.00,2013-09-03 16:46:00,
2013-09-03 09:51:00,96.3,61.7,29.80,NW,309,8.0,9.0,32,0.00,,---,0.00,VWS V14.00,2013-09-03 16:51:00,
2013-09-03 09:56:00,96.1,61.5,29.80,NW,309,0.0,0.0,32,0.00,,---,0.00,VWS V14.00,2013-09-03 16:56:00,
2013-09-03 10:01:00,95.8,61.2,29.80,NW,309,4.0,4.0,32,0.00,,---,0.00,VWS V14.00,2013-09-03 17:01:00,
2013-09-03 10:06:00,95.9,61.3,29.80,NW,309,1.0,1.0,32,0.00,,---,0.00,VWS V14.00,2013-09-03 17:06:00,
2013-09-03 10:11:00,96.5,61.8,29.80,NW,309,8.0,8.0,32,0.00,,---,0.00,VWS V14.00,2013-09-03 17:11:00,
2013-09-03 10:16:00,96.6,61.0,29.80,NW,309,5.0,5.0,31,0.00,,---,0.00,VWS V14.00,2013-09-03 17:16:00,
2013-09-03 10:21:00,96.9,61.3,29.80,NW,309,0.0,0.0,31,0.00,,---,0.00,VWS V14.00,2013-09-03 17:21:00,
2013-09-03 10:26:00,97.5,61.8,29.80,NW,309,9.0,10.0,31,0.00,,---,0.00,VWS V14.00,2013-09-03 17:26:00,
2013-09-03 10:31:00,97.3,61.6,29.80,NW,309,1.0,4.0,31,0.00,,---,0.00,VWS V14.00,2013-09-03 17:31:00,
2013-09-03 10:37:00,97.1,61.5,29.80,NW,309,0.0,3.0,31,0.00,,---,0.00,VWS V14.00,2013-09-03 17:37:00,
2013-09-03 10:42:00,97.2,61.5,29.80,NW,309,13.0,15.0,31,0.00,,---,0.00,VWS V14.00,2013-09-03 17:42:00,
2013-09-03 10:47:00,97.2,61.5,29.80,SSW,200,6.0,7.0,31,0.00,,---,0.00,VWS V14.00,2013-09-03 17:47:00,
2013-09-03 10:52:00,97.4,61.7,29.80,SSW,196,9.0,13.0,31,0.00,,---,0.00,VWS V14.00,2013-09-03 17:52:00,
2013-09-03 10:57:00,98.0,61.3,29.80,South,190,14.0,16.0,30,0.00,,---,0.00,VWS V14.00,2013-09-03 17:57:00,
2013-09-03 11:02:00,98.3,62.5,29.80,South,189,7.0,15.0,31,0.00,,---,0.00,VWS V14.00,2013-09-03 18:02:00,
2013-09-03 11:07:00,98.4,61.7,29.80,South,189,0.0,0.0,30,0.00,,---,0.00,VWS V14.00,2013-09-03 18:07:00,
2013-09-03 11:12:00,98.1,62.3,29.80,South,189,11.0,11.0,31,0.00,,---,0.00,VWS V14.00,2013-09-03 18:12:00,
2013-09-03 11:17:00,97.9,62.2,29.80,South,189,8.0,8.0,31,0.00,,---,0.00,VWS V14.00,2013-09-03 18:17:00,
2013-09-03 11:22:00,98.2,62.4,29.80,South,189,2.0,4.0,31,0.00,,---,0.00,VWS V14.00,2013-09-03 18:22:00,
2013-09-03 11:27:00,98.1,62.3,29.79,South,189,0.0,0.0,31,0.00,,---,0.00,VWS V14.00,2013-09-03 18:27:00,
2013-09-03 11:32:00,98.8,62.9,29.79,South,189,11.0,18.0,31,0.00,,---,0.00,VWS V14.00,2013-09-03 18:32:00,
2013-09-03 11:37:00,99.1,62.3,29.79,South,189,12.0,14.0,30,0.00,,---,0.00,VWS V14.00,2013-09-03 18:37:00,
2013-09-03 11:42:00,99.4,61.5,29.79,South,189,0.0,6.0,29,0.00,,---,0.00,VWS V14.00,2013-09-03 18:42:00,
2013-09-03 11:47:00,99.4,62.5,29.78,South,189,0.0,0.0,30,0.00,,---,0.00,VWS V14.00,2013-09-03 18:47:00,
2013-09-03 11:52:00,99.6,61.7,29.78,South,189,7.0,10.0,29,0.00,,---,0.00,VWS V14.00,2013-09-03 18:52:00,
2013-09-03 11:57:00,99.6,61.7,29.78,South,188,9.0,11.0,29,0.00,,---,0.00,VWS V14.00,2013-09-03 18:57:00,
2013-09-03 12:02:00,99.1,62.3,29.78,South,185,16.0,16.0,30,0.00,,---,0.00,VWS V14.00,2013-09-03 19:02:00,
2013-09-03 12:07:00,99.9,62.0,29.78,South,185,5.0,16.0,29,0.00,,---,0.00,VWS V14.00,2013-09-03 19:07:00,
2013-09-03 12:12:00,100.2,62.2,29.78,South,183,4.0,7.0,29,0.00,,---,0.00,VWS V14.00,2013-09-03 19:12:00,
2013-09-03 12:17:00,99.8,61.9,29.77,South,183,8.0,16.0,29,0.00,,---,0.00,VWS V14.00,2013-09-03 19:17:00,
2013-09-03 12:22:00,99.5,62.6,29.77,South,183,9.0,11.0,30,0.00,,---,0.00,VWS V14.00,2013-09-03 19:22:00,
2013-09-03 12:27:00,99.4,62.5,29.77,South,183,11.0,11.0,30,0.00,,---,0.00,VWS V14.00,2013-09-03 19:27:00,
2013-09-03 12:32:00,100.1,61.2,29.77,South,183,8.0,8.0,28,0.00,,---,0.00,VWS V14.00,2013-09-03 19:32:00,
2013-09-03 12:37:00,100.2,61.2,29.77,South,174,6.0,14.0,28,0.00,,---,0.00,VWS V14.00,2013-09-03 19:37:00,
2013-09-03 12:42:00,100.7,60.6,29.76,South,174,0.0,4.0,27,0.00,,---,0.00,VWS V14.00,2013-09-03 19:42:00,
2013-09-03 12:47:00,100.9,60.8,29.76,South,173,10.0,15.0,27,0.00,,---,0.00,VWS V14.00,2013-09-03 19:47:00,
2013-09-03 12:52:00,101.3,62.2,29.76,SSE,148,10.0,20.0,28,0.00,,---,0.00,VWS V14.00,2013-09-03 19:52:00,
2013-09-03 12:57:00,100.7,61.7,29.76,SSE,148,3.0,7.0,28,0.00,,---,0.00,VWS V14.00,2013-09-03 19:57:00,
2013-09-03 13:02:00,101.0,61.9,29.76,SSE,148,17.0,17.0,28,0.00,,---,0.00,VWS V14.00,2013-09-03 20:02:00,
2013-09-03 13:07:00,101.6,62.4,29.76,SSE,148,2.0,10.0,28,0.00,,---,0.00,VWS V14.00,2013-09-03 20:07:00,
2013-09-03 13:12:00,102.0,62.8,29.76,SE,145,14.0,24.0,28,0.00,,---,0.00,VWS V14.00,2013-09-03 20:12:00,
2013-09-03 13:17:00,102.1,61.8,29.76,SSE,149,16.0,20.0,27,0.00,,---,0.00,VWS V14.00,2013-09-03 20:17:00,
2013-09-03 13:22:00,102.0,62.8,29.75,SSE,150,4.0,21.0,28,0.00,,---,0.00,VWS V14.00,2013-09-03 20:22:00,
2013-09-03 13:27:00,101.9,62.7,29.75,SSE,148,14.0,21.0,28,0.00,,---,0.00,VWS V14.00,2013-09-03 20:27:00,
2013-09-03 13:32:00,102.0,62.8,29.75,SSE,153,19.0,19.0,28,0.00,,---,0.00,VWS V14.00,2013-09-03 20:32:00,
2013-09-03 13:37:00,102.0,61.7,29.75,SSE,159,14.0,14.0,27,0.00,,---,0.00,VWS V14.00,2013-09-03 20:37:00,
2013-09-03 13:42:00,101.6,62.4,29.75,SSE,157,20.0,20.0,28,0.00,,---,0.00,VWS V14.00,2013-09-03 20:42:00,
2013-09-03 13:47:00,101.2,62.1,29.75,SSE,161,17.0,20.0,28,0.00,,---,0.00,VWS V14.00,2013-09-03 20:47:00,
2013-09-03 13:52:00,101.2,63.1,29.75,SSE,159,1.0,28.0,29,0.00,,---,0.00,VWS V14.00,2013-09-03 20:52:00,
2013-09-03 13:57:00,101.9,63.7,29.74,SSE,163,4.0,23.0,29,0.00,,---,0.00,VWS V14.00,2013-09-03 20:57:00,
2013-09-03 14:02:00,102.3,64.0,29.74,SSE,162,12.0,17.0,29,0.00,,---,0.00,VWS V14.00,2013-09-03 21:02:00,
2013-09-03 14:07:00,102.2,62.9,29.74,SE,136,22.0,25.0,28,0.00,,---,0.00,VWS V14.00,2013-09-03 21:07:00,
2013-09-03 14:12:00,101.3,62.2,29.74,SE,129,20.0,26.0,28,0.00,,---,0.00,VWS V14.00,2013-09-03 21:12:00,
2013-09-03 14:17:00,101.3,62.2,29.73,SE,130,3.0,16.0,28,0.00,,---,0.00,VWS V14.00,2013-09-03 21:17:00,
2013-09-03 14:22:00,102.0,61.7,29.73,SSE,154,5.0,24.0,27,0.00,,---,0.00,VWS V14.00,2013-09-03 21:22:00,
2013-09-03 14:27:00,102.3,60.9,29.73,SSE,154,15.0,17.0,26,0.00,,---,0.00,VWS V14.00,2013-09-03 21:27:00,
2013-09-03 14:32:00,102.1,60.8,29.73,SSE,153,19.0,20.0,26,0.00,,---,0.00,VWS V14.00,2013-09-03 21:32:00,
2013-09-03 14:37:00,101.8,60.5,29.73,SSE,153,14.0,20.0,26,0.00,,---,0.00,VWS V14.00,2013-09-03 21:37:00,
2013-09-03 14:42:00,101.9,60.6,29.73,SSE,153,6.0,22.0,26,0.00,,---,0.00,VWS V14.00,2013-09-03 21:42:00,
2013-09-03 14:47:00,101.3,61.2,29.73,SSE,158,2.0,16.0,27,0.00,,---,0.00,VWS V14.00,2013-09-03 21:47:00,
2013-09-03 14:52:00,100.7,60.6,29.73,SSE,158,8.0,18.0,27,0.00,,---,0.00,VWS V14.00,2013-09-03 21:52:00,
2013-09-03 14:57:00,100.2,63.2,29.74,WSW,250,31.0,42.0,30,0.00,,---,0.00,VWS V14.00,2013-09-03 21:57:00,
2013-09-03 15:02:00,96.2,63.3,29.73,SW,232,33.0,35.0,34,0.00,,---,0.00,VWS V14.00,2013-09-03 22:02:00,
2013-09-03 15:07:00,92.9,64.3,29.74,WSW,244,35.0,40.0,39,0.00,,---,0.00,VWS V14.00,2013-09-03 22:07:00,
2013-09-03 15:12:00,92.4,63.9,29.74,WSW,257,24.0,31.0,39,0.00,,---,0.00,VWS V14.00,2013-09-03 22:12:00,
2013-09-03 15:17:00,92.7,63.4,29.74,West,272,15.0,22.0,38,0.00,,---,0.00,VWS V14.00,2013-09-03 22:17:00,
2013-09-03 15:22:00,92.9,63.6,29.74,West,268,18.0,24.0,38,0.00,,---,0.00,VWS V14.00,2013-09-03 22:22:00,
2013-09-03 15:27:00,92.9,62.8,29.74,West,265,13.0,15.0,37,0.00,,---,0.00,VWS V14.00,2013-09-03 22:27:00,
2013-09-03 15:32:00,93.1,61.4,29.74,WNW,287,13.0,16.0,35,0.00,,---,0.00,VWS V14.00,2013-09-03 22:32:00,
2013-09-03 15:37:00,93.4,61.7,29.74,WNW,293,1.0,9.0,35,0.00,,---,0.00,VWS V14.00,2013-09-03 22:37:00,
2013-09-03 15:42:00,94.0,62.2,29.74,WNW,296,6.0,12.0,35,0.00,,---,0.00,VWS V14.00,2013-09-03 22:42:00,
2013-09-03 15:47:00,94.4,61.7,29.74,WNW,296,12.0,12.0,34,0.00,,---,0.00,VWS V14.00,2013-09-03 22:47:00,
2013-09-03 15:52:00,94.8,62.1,29.73,WNW,296,6.0,7.0,34,0.00,,---,0.00,VWS V14.00,2013-09-03 22:52:00,
2013-09-03 15:57:00,95.1,61.5,29.74,WNW,296,10.0,10.0,33,0.00,,---,0.00,VWS V14.00,2013-09-03 22:57:00,
2013-09-03 16:02:00,95.3,61.7,29.73,WNW,296,9.0,11.0,33,0.00,,---,0.00,VWS V14.00,2013-09-03 23:02:00,
2013-09-03 16:07:00,95.6,61.9,29.73,WNW,296,7.0,18.0,33,0.00,,---,0.00,VWS V14.00,2013-09-03 23:07:00,
2013-09-03 16:12:00,95.8,61.2,29.72,NW,311,19.0,22.0,32,0.00,,---,0.00,VWS V14.00,2013-09-03 23:12:00,
2013-09-03 16:17:00,95.4,61.8,29.71,NNW,327,24.0,24.0,33,0.00,,---,0.00,VWS V14.00,2013-09-03 23:17:00,
2013-09-03 16:22:00,95.2,61.6,29.71,NNW,330,19.0,21.0,33,0.00,,---,0.00,VWS V14.00,2013-09-03 23:22:00,
2013-09-03 16:27:00,95.3,61.7,29.71,NNW,330,6.0,11.0,33,0.00,,---,0.00,VWS V14.00,2013-09-03 23:27:00,
2013-09-03 16:33:00,95.7,62.0,29.72,North,360,13.0,17.0,33,0.00,,---,0.00,VWS V14.00,2013-09-03 23:33:00,
2013-09-03 16:38:00,96.2,61.6,29.73,West,264,26.0,28.0,32,0.00,,---,0.00,VWS V14.00,2013-09-03 23:38:00,
2013-09-03 16:43:00,95.9,61.3,29.73,West,280,25.0,30.0,32,0.00,,---,0.00,VWS V14.00,2013-09-03 23:43:00,
2013-09-03 16:48:00,95.8,60.3,29.72,West,268,20.0,31.0,31,0.00,,---,0.00,VWS V14.00,2013-09-03 23:48:00,
2013-09-03 16:53:00,95.5,61.0,29.72,West,281,22.0,22.0,32,0.00,,---,0.00,VWS V14.00,2013-09-03 23:53:00,
2013-09-03 16:58:00,96.0,60.5,29.72,WNW,284,14.0,30.0,31,0.00,,---,0.00,VWS V14.00,2013-09-03 23:58:00,
2013-09-03 17:03:00,96.2,57.8,29.72,NW,306,24.0,30.0,28,0.00,,---,0.00,VWS V14.00,2013-09-04 00:03:00,
2013-09-03 17:08:00,96.1,58.7,29.72,NW,321,18.0,24.0,29,0.00,,---,0.00,VWS V14.00,2013-09-04 00:08:00,
2013-09-03 17:13:00,96.3,59.8,29.71,NNW,348,14.0,20.0,30,0.00,,---,0.00,VWS V14.00,2013-09-04 00:13:00,
2013-09-03 17:18:00,97.1,59.6,29.71,NNW,336,20.0,24.0,29,0.00,,---,0.00,VWS V14.00,2013-09-04 00:18:00,
2013-09-03 17:23:00,97.2,59.7,29.71,NNW,342,14.0,18.0,29,0.00,,---,0.00,VWS V14.00,2013-09-04 00:23:00,
2013-09-03 17:28:00,97.5,59.0,29.71,NW,319,20.0,21.0,28,0.00,,---,0.00,VWS V14.00,2013-09-04 00:28:00,
2013-09-03 17:33:00,97.5,57.9,29.71,NW,307,21.0,22.0,27,0.00,,---,0.00,VWS V14.00,2013-09-04 00:33:00,
2013-09-03 17:38:00,97.8,58.2,29.71,NW,324,16.0,18.0,27,0.00,,---,0.00,VWS V14.00,2013-09-04 00:38:00,
2013-09-03 17:43:00,97.9,59.3,29.71,NNW,346,16.0,18.0,28,0.00,,---,0.00,VWS V14.00,2013-09-04 00:43:00,
2013-09-03 17:48:00,98.3,59.6,29.70,NNW,331,9.0,17.0,28,0.00,,---,0.00,VWS V14.00,2013-09-04 00:48:00,
2013-09-03 17:53:00,98.4,59.7,29.70,NNW,332,11.0,17.0,28,0.00,,---,0.00,VWS V14.00,2013-09-04 00:53:00,
2013-09-03 17:58:00,98.6,59.9,29.70,NNW,329,12.0,17.0,28,0.00,,---,0.00,VWS V14.00,2013-09-04 00:58:00,
2013-09-03 18:03:00,98.7,59.0,29.70,NNW,330,9.0,9.0,27,0.00,,---,0.00,VWS V14.00,2013-09-04 01:03:00,
2013-09-03 18:08:00,98.8,60.0,29.70,NNW,330,5.0,12.0,28,0.00,,---,0.00,VWS V14.00,2013-09-04 01:08:00,
2013-09-03 18:13:00,99.2,58.3,29.70,NNW,330,10.0,11.0,26,0.00,,---,0.00,VWS V14.00,2013-09-04 01:13:00,
2013-09-03 18:18:00,99.4,58.5,29.70,NNW,330,7.0,10.0,26,0.00,,---,0.00,VWS V14.00,2013-09-04 01:18:00,
2013-09-03 18:23:00,99.5,57.5,29.70,NNW,330,5.0,12.0,25,0.00,,---,0.00,VWS V14.00,2013-09-04 01:23:00,
2013-09-03 18:28:00,99.3,55.0,29.69,NNW,330,10.0,14.0,23,0.00,,---,0.00,VWS V14.00,2013-09-04 01:28:00,
2013-09-03 18:33:00,99.1,54.8,29.69,NW,308,17.0,19.0,23,0.00,,---,0.00,VWS V14.00,2013-09-04 01:33:00,
2013-09-03 18:38:00,98.1,55.2,29.69,WNW,291,14.0,20.0,24,0.00,,---,0.00,VWS V14.00,2013-09-04 01:38:00,
2013-09-03 18:43:00,97.2,55.5,29.69,WNW,290,12.0,22.0,25,0.00,,---,0.00,VWS V14.00,2013-09-04 01:43:00,
2013-09-03 18:48:00,96.8,55.2,29.69,WNW,292,17.0,20.0,25,0.00,,---,0.00,VWS V14.00,2013-09-04 01:48:00,
2013-09-03 18:53:00,96.7,55.1,29.70,WNW,292,11.0,15.0,25,0.00,,---,0.00,VWS V14.00,2013-09-04 01:53:00,
2013-09-03 18:58:00,96.4,56.0,29.70,WNW,292,15.0,18.0,26,0.00,,---,0.00,VWS V14.00,2013-09-04 01:58:00,
2013-09-03 19:03:00,96.2,55.8,29.70,WNW,293,11.0,17.0,26,0.00,,---,0.00,VWS V14.00,2013-09-04 02:03:00,
2013-09-03 19:08:00,95.9,55.5,29.70,WNW,293,9.0,15.0,26,0.00,,---,0.00,VWS V14.00,2013-09-04 02:08:00,
2013-09-03 19:13:00,95.7,55.4,29.70,WNW,293,6.0,10.0,26,0.00,,---,0.00,VWS V14.00,2013-09-04 02:13:00,
2013-09-03 19:18:00,95.7,55.4,29.70,WNW,293,7.0,10.0,26,0.00,,---,0.00,VWS V14.00,2013-09-04 02:18:00,
2013-09-03 19:23:00,95.6,55.3,29.70,WNW,293,8.0,10.0,26,0.00,,---,0.00,VWS V14.00,2013-09-04 02:23:00,
2013-09-03 19:28:00,95.4,55.1,29.70,WNW,293,9.0,9.0,26,0.00,,---,0.00,VWS V14.00,2013-09-04 02:28:00,
2013-09-03 19:33:00,95.3,55.0,29.70,WNW,293,5.0,9.0,26,0.00,,---,0.00,VWS V14.00,2013-09-04 02:33:00,
2013-09-03 19:38:00,95.2,56.0,29.70,WNW,293,6.0,13.0,27,0.00,,---,0.00,VWS V14.00,2013-09-04 02:38:00,
2013-09-03 19:43:00,95.2,54.9,29.71,WNW,293,9.0,12.0,26,0.00,,---,0.00,VWS V14.00,2013-09-04 02:43:00,
2013-09-03 19:48:00,95.1,55.9,29.71,WNW,293,10.0,13.0,27,0.00,,---,0.00,VWS V14.00,2013-09-04 02:48:00,
2013-09-03 19:53:00,94.8,55.6,29.71,WNW,293,9.0,15.0,27,0.00,,---,0.00,VWS V14.00,2013-09-04 02:53:00,
2013-09-03 19:58:00,94.6,55.5,29.71,WNW,293,6.0,12.0,27,0.00,,---,0.00,VWS V14.00,2013-09-04 02:58:00,
2013-09-03 20:03:00,94.5,55.4,29.71,WNW,293,6.0,10.0,27,0.00,,---,0.00,VWS V14.00,2013-09-04 03:03:00,
2013-09-03 20:08:00,94.3,55.2,29.72,WNW,293,4.0,9.0,27,0.00,,---,0.00,VWS V14.00,2013-09-04 03:08:00,
2013-09-03 20:13:00,94.1,55.0,29.72,WNW,293,10.0,10.0,27,0.00,,---,0.00,VWS V14.00,2013-09-04 03:13:00,
2013-09-03 20:18:00,93.9,54.9,29.72,WNW,293,5.0,8.0,27,0.00,,---,0.00,VWS V14.00,2013-09-04 03:18:00,
2013-09-03 20:23:00,93.9,54.9,29.73,WNW,293,6.0,10.0,27,0.00,,---,0.00,VWS V14.00,2013-09-04 03:23:00,
2013-09-03 20:28:00,93.8,55.8,29.73,WNW,293,6.0,9.0,28,0.00,,---,0.00,VWS V14.00,2013-09-04 03:28:00,
2013-09-03 20:33:00,93.8,55.8,29.73,WNW,293,10.0,13.0,28,0.00,,---,0.00,VWS V14.00,2013-09-04 03:33:00,
2013-09-03 20:38:00,93.9,55.9,29.73,WNW,293,9.0,15.0,28,0.00,,---,0.00,VWS V14.00,2013-09-04 03:38:00,
2013-09-03 20:43:00,93.7,55.7,29.74,WNW,293,10.0,11.0,28,0.00,,---,0.00,VWS V14.00,2013-09-04 03:43:00,
2013-09-03 20:48:00,93.5,56.5,29.74,WNW,293,8.0,11.0,29,0.00,,---,0.00,VWS V14.00,2013-09-04 03:48:00,
2013-09-03 20:53:00,93.1,57.1,29.74,WNW,293,8.0,9.0,30,0.00,,---,0.00,VWS V14.00,2013-09-04 03:53:00,
2013-09-03 20:58:00,92.7,57.7,29.74,WNW,293,9.0,12.0,31,0.00,,---,0.00,VWS V14.00,2013-09-04 03:58:00,
2013-09-03 21:01:00,92.6,57.6,29.74,WNW,293,6.0,12.0,31,0.00,,---,0.00,VWS V14.00,2013-09-04 04:01:00,
2013-09-03 21:03:00,92.5,57.5,29.75,WNW,293,7.0,10.0,31,0.00,,---,0.00,VWS V14.00,2013-09-04 04:03:00,
2013-09-03 21:06:00,92.4,58.3,29.75,WNW,293,6.0,10.0,32,0.00,,---,0.00,VWS V14.00,2013-09-04 04:06:00,
2013-09-03 21:08:00,92.4,58.3,29.75,WNW,293,6.0,11.0,32,0.00,,---,0.00,VWS V14.00,2013-09-04 04:08:00,
2013-09-03 21:11:00,92.5,59.2,29.75,WNW,293,9.0,19.0,33,0.00,,---,0.00,VWS V14.00,2013-09-04 04:11:00,
2013-09-03 21:16:00,92.6,59.3,29.75,WNW,293,9.0,16.0,33,0.00,,---,0.00,VWS V14.00,2013-09-04 04:16:00,
2013-09-03 21:21:00,92.6,59.3,29.75,WNW,293,8.0,13.0,33,0.00,,---,0.00,VWS V14.00,2013-09-04 04:21:00,
2013-09-03 21:26:00,92.6,60.2,29.75,WNW,293,14.0,14.0,34,0.00,,---,0.00,VWS V14.00,2013-09-04 04:26:00,
2013-09-03 21:31:00,92.6,60.2,29.75,WNW,293,12.0,17.0,34,0.00,,---,0.00,VWS V14.00,2013-09-04 04:31:00,
2013-09-03 21:36:00,92.8,60.3,29.75,WNW,293,8.0,17.0,34,0.00,,---,0.00,VWS V14.00,2013-09-04 04:36:00,
2013-09-03 21:41:00,92.9,60.4,29.75,WNW,296,11.0,18.0,34,0.00,,---,0.00,VWS V14.00,2013-09-04 04:41:00,
2013-09-03 21:46:00,92.8,61.2,29.75,North,360,12.0,19.0,35,0.00,,---,0.00,VWS V14.00,2013-09-04 04:46:00,
2013-09-03 21:51:00,92.7,61.1,29.76,NW,323,16.0,20.0,35,0.00,,---,0.00,VWS V14.00,2013-09-04 04:51:00,
2013-09-03 21:56:00,92.6,61.0,29.76,NNW,331,14.0,21.0,35,0.00,,---,0.00,VWS V14.00,2013-09-04 04:56:00,
2013-09-03 22:01:00,92.4,61.6,29.76,NW,323,17.0,23.0,36,0.00,,---,0.00,VWS V14.00,2013-09-04 05:01:00,
2013-09-03 22:06:00,92.3,61.5,29.75,NW,323,14.0,23.0,36,0.00,,---,0.00,VWS V14.00,2013-09-04 05:06:00,
2013-09-03 22:11:00,92.1,61.3,29.76,NW,318,11.0,19.0,36,0.00,,---,0.00,VWS V14.00,2013-09-04 05:11:00,
2013-09-03 22:16:00,91.9,61.2,29.75,North,360,12.0,22.0,36,0.00,,---,0.00,VWS V14.00,2013-09-04 05:16:00,
2013-09-03 22:21:00,91.7,61.0,29.76,WNW,302,11.0,18.0,36,0.00,,---,0.00,VWS V14.00,2013-09-04 05:21:00,
2013-09-03 22:26:00,91.5,61.6,29.76,NW,307,12.0,16.0,37,0.00,,---,0.00,VWS V14.00,2013-09-04 05:26:00,
2013-09-03 22:31:00,91.3,61.4,29.76,NW,307,8.0,15.0,37,0.00,,---,0.00,VWS V14.00,2013-09-04 05:31:00,
2013-09-03 22:36:00,91.0,61.1,29.76,NW,307,12.0,14.0,37,0.00,,---,0.00,VWS V14.00,2013-09-04 05:36:00,
2013-09-03 22:41:00,91.0,61.1,29.76,NW,307,13.0,15.0,37,0.00,,---,0.00,VWS V14.00,2013-09-04 05:41:00,
2013-09-03 22:46:00,91.0,60.4,29.76,North,360,12.0,15.0,36,0.00,,---,0.00,VWS V14.00,2013-09-04 05:46:00,
2013-09-03 22:51:00,91.1,59.7,29.76,NW,307,9.0,14.0,35,0.00,,---,0.00,VWS V14.00,2013-09-04 05:51:00,
2013-09-03 22:56:00,91.1,59.7,29.76,NW,307,10.0,14.0,35,0.00,,---,0.00,VWS V14.00,2013-09-04 05:56:00,
2013-09-03 23:01:00,91.0,58.8,29.76,NW,307,8.0,12.0,34,0.00,,---,0.00,VWS V14.00,2013-09-04 06:01:00,
2013-09-03 23:06:00,90.8,58.6,29.76,NW,307,4.0,12.0,34,0.00,,---,0.00,VWS V14.00,2013-09-04 06:06:00,
2013-09-03 23:11:00,90.4,58.2,29.76,NW,307,6.0,8.0,34,0.00,,---,0.00,VWS V14.00,2013-09-04 06:11:00,
2013-09-03 23:16:00,90.2,58.1,29.76,NW,307,8.0,9.0,34,0.00,,---,0.00,VWS V14.00,2013-09-04 06:16:00,
2013-09-03 23:21:00,90.1,58.0,29.76,NW,307,6.0,9.0,34,0.00,,---,0.00,VWS V14.00,2013-09-04 06:21:00,
2013-09-03 23:26:00,90.1,58.0,29.76,NW,307,0.0,9.0,34,0.00,,---,0.00,VWS V14.00,2013-09-04 06:26:00,
2013-09-03 23:31:00,89.9,57.8,29.76,NW,307,0.0,5.0,34,0.00,,---,0.00,VWS V14.00,2013-09-04 06:31:00,
2013-09-03 23:36:00,89.7,57.6,29.76,NW,307,0.0,0.0,34,0.00,,---,0.00,VWS V14.00,2013-09-04 06:36:00,
2013-09-03 23:41:00,89.7,57.6,29.76,NW,307,7.0,9.0,34,0.00,,---,0.00,VWS V14.00,2013-09-04 06:41:00,
2013-09-03 23:46:00,89.9,57.8,29.76,NW,307,4.0,8.0,34,0.00,,---,0.00,VWS V14.00,2013-09-04 06:46:00,
2013-09-03 23:51:00,89.9,58.6,29.76,NW,307,6.0,11.0,35,0.00,,---,0.00,VWS V14.00,2013-09-04 06:51:00,
2013-09-03 23:56:00,89.9,58.6,29.76,North,360,0.0,12.0,35,0.00,,---,0.00,VWS V14.00,2013-09-04 06:56:00,